x

Sandettie Lightship (62304) Wave Buoy

1:00 - Wed 6th May 2015 All times are CEST. 2 hours from GMT.

  • Sig Wave height 3.0ft
  • Average Period 6s
  • Wind
    32mph
  • Sea Temp 51°f
  • Air Temp 53°f
  • Sea Pressure 1005.7mb
  • Sandettie Lightship
  • Sandettie Lightship

More Historic Weather Station data

Upgrade to MSW Pro to gain access to the past 30 days of data for over 8000 Wavebouys and Weather Stations around the globe.

Join Pro

Comparision Forecast

View Surf forecast
   
mer. 05/06 1:00 3ft 6s 32
mph
1005.7mb 51f 53f
12:00 4ft 6s 33
mph
1005.3mb 51f 53f
mar. 05/05 11:00 2.5ft 6s 22
mph
1006.1mb 51f 52f
10:00 2.5ft 6s 26
mph
1005.9mb 51f 54f
9:00 3.5ft 6s 30
mph
1005.1mb 51f 54f
8:00 2.5ft 7s 29
mph
1004.7mb 51f 55f
7:00 3ft 7s 24
mph
1004.3mb 51f 54f
6:00 4.5ft 7s 23
mph
1004.3mb 51f 54f
5:00 6ft 6s 32
mph
1004.1mb 51f 52f
4:00 6.5ft 6s 31
mph
1003.1mb 51f 52f
3:00 8.5ft 6s 39
mph
1001.5mb 51f 52f
2:00 8ft 7s 40
mph
999.5mb 51f 52f
1:00 4.5ft 6s 40
mph
997.3mb 51f 52f
12:00 4ft 6s 38
mph
995.7mb 51f 52f
11:00 2.5ft 5s 37
mph
993.5mb 51f 55f
10:00 1.6ft 5s 30
mph
992.5mb 51f 59f
9:00 1.6ft 5s 26
mph
991.9mb 51f 59f
8:00 1.3ft 4s 29
mph
991.1mb 51f 57f
7:00 0.7ft 5s 29
mph
991.3mb 51f 59f
6:00 0.7ft 5s 23
mph
990.9mb 51f 58f
5:00  -   -   -  mph 990.9mb - 58f
4:00 0.7ft 5s 23
mph
991.3mb 51f 58f
3:00 0.7ft 5s 20
mph
992.1mb 51f 55f
2:00 0.7ft 5s 13
mph
992.7mb 51f 53f
1:00 1ft 5s 15
mph
993.7mb 51f 53f
12:00 0.7ft 5s 22
mph
995.3mb 51f 53f
lun. 05/04 11:00 0.7ft 5s 25
mph
997.5mb 51f 54f
10:00 0.7ft 6s 25
mph
999.1mb 51f 53f
9:00 0.7ft 6s 25
mph
1000.7mb 51f 52f
8:00 0.7ft 6s 20
mph
1002.1mb 51f 51f
7:00 1ft 6s 13
mph
1003.1mb 51f 52f
6:00 0.7ft 6s 9
mph
1004.1mb 51f 52f
5:00 1ft 6s  -  mph 1004.7mb - 53f
4:00 1ft 5s  -  mph 1005.5mb - 53f
3:00 1ft 5s  -  mph 1006.3mb - 53f
2:00 0.7ft 5s  -  mph 1007.1mb - 52f
1:00 1ft 5s  -  mph 1007.3mb - 52f
12:00 1ft 5s  -  mph 1007.3mb - 52f
11:00 1ft 5s  -  mph 1007.1mb - 52f
10:00 1ft 5s  -  mph 1007.7mb - 52f
9:00 1ft 5s  -  mph 1007.3mb - 52f
8:00 1.6ft 5s  -  mph 1006.3mb - 52f
7:00 1ft 6s  -  mph 1005.7mb - 52f
6:00 1ft 5s  -  mph 1005.1mb - 53f
5:00 1ft 5s  -  mph 1004.7mb - 53f
4:00 1.3ft 5s  -  mph 1004.1mb - 53f
3:00 1.3ft 5s  -  mph 1003.7mb - 53f
2:00 1.3ft 5s  -  mph 1003.7mb - 53f
dim. 05/03 11:00  -   -   -  mph 1002.9mb - 52f
10:00  -   -   -  mph 1003.1mb - 51f
9:00 2ft 6s  -  mph 1002.5mb - 51f
8:00 2.5ft 5s  -  mph 1001.3mb - 51f
7:00 1.6ft 6s  -  mph 1000.9mb - 52f
6:00 2ft 5s  -  mph 1000.1mb - 51f
5:00 1.3ft 5s  -  mph 999.5mb - 52f
4:00 1.6ft 5s  -  mph 999.3mb - 53f
3:00 1.3ft 5s  -  mph 998.5mb - 54f
2:00 1.3ft 5s  -  mph 998.5mb - 54f
1:00 1.3ft 6s  -  mph 998.1mb - 56f
12:00 1.3ft 6s  -  mph 998.1mb - 55f
11:00 2ft 6s  -  mph 998.9mb - 54f
10:00 1.6ft 5s  -  mph 1039.5mb - 53f
9:00 1.6ft 5s  -  mph 1000.3mb - 53f
8:00  -   -   -  mph 1000.7mb - 52f
7:00  -   -   -  mph 1001.3mb - 53f
6:00 2.5ft 5s  -  mph 1001.7mb - 53f
5:00  -   -   -  mph 1002.1mb - 52f
4:00 1.6ft 6s  -  mph 1003.5mb - 53f
3:00 1.6ft 6s  -  mph 1003.5mb - 52f
2:00 1.3ft 6s  -  mph 1004.1mb - 53f
1:00 1.3ft 6s  -  mph 1004.9mb - 53f
12:00 1.6ft 5s  -  mph 1005.7mb - 53f
sam. 05/02 11:00 1.6ft 5s  -  mph 1005.7mb - 53f
10:00 2ft 5s  -  mph 1006.7mb - 54f
9:00 1.6ft 5s  -  mph 1007.3mb - 51f
8:00 1.6ft 5s  -  mph 1007.9mb - 51f
7:00 1.3ft 5s  -  mph 1008.3mb - 51f
6:00 1.3ft 5s  -  mph 1008.7mb - 51f
5:00 2ft 5s  -  mph 1009.3mb - 50f
4:00 1.6ft 5s  -  mph 1009.9mb - 50f
3:00 1.3ft 5s  -  mph 1010.7mb - 50f
2:00 1.3ft 6s  -  mph 1011.1mb - 49f
1:00 1ft 6s  -  mph 1011.5mb - 49f
12:00 1.3ft 6s  -  mph 1011.9mb - 48f
11:00 1.6ft 5s  -  mph 1011.9mb - 48f
10:00 1.6ft 5s  -  mph 1012.3mb - 48f
9:00 1.6ft 5s  -  mph 1012.5mb - 49f
8:00 1.6ft 5s  -  mph 1012.3mb - 48f
7:00 1.6ft 5s  -  mph 1012.3mb - 48f
6:00 1.6ft 5s  -  mph 1012.3mb - 48f
5:00 2ft 5s  -  mph 1012.3mb - 48f
4:00 2ft 5s  -  mph 1012.3mb - 47f
3:00 2ft 5s  -  mph 1012.3mb - 48f